[Date Prev][Date Next][Thread Prev][Thread Next] - [Date Index][Thread Index][Author Index]

2 Line ISS Keps 10-6



ISS
1 25544U 98067A   03279.36759259  .00023177  00000-0  26417-3 0  5985
2 25544  51.6309 179.9794 0006422  11.8171 139.2705 15.62113795278379


----
Via the sarex mailing list at AMSAT.ORG courtesy of AMSAT-NA.
To unsubscribe, send "unsubscribe sarex" to Majordomo@amsat.org



AMSAT Top AMSAT Home